Time,TemperatureF,DewpointF,PressureIn,WindDirection,WindDirectionDegrees,WindSpeedMPH,WindSpeedGustMPH,Humidity,HourlyPrecipIn,Conditions,Clouds,dailyrainin,SoftwareType,DateUTC
2013-06-20 00:01:00,59.6,11.9,30.08,North,349,1.0,2.0,15,0.00,,---,0.00,VWS V14.01,2013-06-20 06:01:00,
2013-06-20 00:06:00,59.6,11.9,30.09,NNW,346,1.0,1.0,15,0.00,,---,0.00,VWS V14.01,2013-06-20 06:06:00,
2013-06-20 00:11:00,59.5,11.8,30.09,North,357,1.0,2.0,15,0.00,,---,0.00,VWS V14.01,2013-06-20 06:11:00,
2013-06-20 00:16:00,59.6,11.9,30.09,NNW,343,2.0,2.0,15,0.00,,---,0.00,VWS V14.01,2013-06-20 06:16:00,
2013-06-20 00:21:00,59.9,12.2,30.09,NNW,343,1.0,2.0,15,0.00,,---,0.00,VWS V14.01,2013-06-20 06:21:00,
2013-06-20 00:26:00,59.9,12.2,30.09,NNW,343,1.0,2.0,15,0.00,,---,0.00,VWS V14.01,2013-06-20 06:26:00,
2013-06-20 00:31:00,59.8,12.1,30.09,NNW,343,1.0,2.0,15,0.00,,---,0.00,VWS V14.01,2013-06-20 06:31:00,
2013-06-20 00:36:00,59.6,11.9,30.08,NNW,345,1.0,2.0,15,0.00,,---,0.00,VWS V14.01,2013-06-20 06:36:00,
2013-06-20 00:41:00,59.3,11.7,30.08,NNW,340,1.0,2.0,15,0.00,,---,0.00,VWS V14.01,2013-06-20 06:41:00,
2013-06-20 00:46:00,59.2,13.1,30.08,NW,317,2.0,2.0,16,0.00,,---,0.00,VWS V14.01,2013-06-20 06:46:00,
2013-06-20 00:51:00,59.4,11.8,30.08,NNW,333,1.0,2.0,15,0.00,,---,0.00,VWS V14.01,2013-06-20 06:51:00,
2013-06-20 00:56:00,59.4,11.8,30.08,NNW,329,2.0,2.0,15,0.00,,---,0.00,VWS V14.01,2013-06-20 06:56:00,
2013-06-20 01:01:00,59.4,11.8,30.08,NW,320,1.0,2.0,15,0.00,,---,0.00,VWS V14.01,2013-06-20 07:01:00,
2013-06-20 01:06:00,59.7,12.0,30.08,NW,322,1.0,1.0,15,0.00,,---,0.00,VWS V14.01,2013-06-20 07:06:00,
2013-06-20 01:11:00,59.7,12.0,30.08,NW,305,2.0,2.0,15,0.00,,---,0.00,VWS V14.01,2013-06-20 07:11:00,
2013-06-20 01:16:00,59.6,11.9,30.08,NW,318,2.0,2.0,15,0.00,,---,0.00,VWS V14.01,2013-06-20 07:16:00,
2013-06-20 01:21:00,59.6,11.9,30.08,NNW,343,2.0,3.0,15,0.00,,---,0.00,VWS V14.01,2013-06-20 07:21:00,
2013-06-20 01:26:00,59.4,11.8,30.08,NW,323,2.0,4.0,15,0.00,,---,0.00,VWS V14.01,2013-06-20 07:26:00,
2013-06-20 01:31:00,59.8,12.1,30.08,NNW,327,2.0,4.0,15,0.00,,---,0.00,VWS V14.01,2013-06-20 07:31:00,
2013-06-20 01:36:00,59.5,11.8,30.08,NNW,330,2.0,2.0,15,0.00,,---,0.00,VWS V14.01,2013-06-20 07:36:00,
2013-06-20 01:41:00,59.0,12.9,30.08,NNW,337,1.0,2.0,16,0.00,,---,0.00,VWS V14.01,2013-06-20 07:41:00,
2013-06-20 01:46:00,58.6,12.6,30.08,NW,326,2.0,2.0,16,0.00,,---,0.00,VWS V14.01,2013-06-20 07:46:00,
2013-06-20 01:51:00,58.0,13.4,30.08,NNW,330,1.0,3.0,17,0.00,,---,0.00,VWS V14.01,2013-06-20 07:51:00,
2013-06-20 01:56:00,57.7,14.5,30.08,NNW,330,1.0,3.0,18,0.00,,---,0.00,VWS V14.01,2013-06-20 07:56:00,
2013-06-20 02:01:00,57.9,12.0,30.08,NNW,337,1.0,3.0,16,0.00,,---,0.00,VWS V14.01,2013-06-20 08:01:00,
2013-06-20 02:06:00,58.1,12.2,30.08,NW,326,1.0,3.0,16,0.00,,---,0.00,VWS V14.01,2013-06-20 08:06:00,
2013-06-20 02:11:00,58.3,10.9,30.08,NNW,337,2.0,3.0,15,0.00,,---,0.00,VWS V14.01,2013-06-20 08:11:00,
2013-06-20 02:16:00,58.7,12.6,30.08,NNW,330,1.0,3.0,16,0.00,,---,0.00,VWS V14.01,2013-06-20 08:16:00,
2013-06-20 02:21:00,58.5,11.0,30.08,WNW,300,2.0,3.0,15,0.00,,---,0.00,VWS V14.01,2013-06-20 08:21:00,
2013-06-20 02:26:00,58.2,12.2,30.08,NW,319,2.0,3.0,16,0.00,,---,0.00,VWS V14.01,2013-06-20 08:26:00,
2013-06-20 02:31:00,58.1,10.7,30.08,NW,311,2.0,3.0,15,0.00,,---,0.00,VWS V14.01,2013-06-20 08:31:00,
2013-06-20 02:36:00,58.2,10.8,30.08,NNW,333,2.0,2.0,15,0.00,,---,0.00,VWS V14.01,2013-06-20 08:36:00,
2013-06-20 02:41:00,57.8,11.9,30.08,NW,310,1.0,2.0,16,0.00,,---,0.00,VWS V14.01,2013-06-20 08:41:00,
2013-06-20 02:46:00,57.2,12.8,30.08,NNW,338,1.0,2.0,17,0.00,,---,0.00,VWS V14.01,2013-06-20 08:46:00,
2013-06-20 02:51:00,57.5,11.7,30.08,WNW,284,1.0,2.0,16,0.00,,---,0.00,VWS V14.01,2013-06-20 08:51:00,
2013-06-20 02:56:00,57.7,11.8,30.08,NW,319,1.0,2.0,16,0.00,,---,0.00,VWS V14.01,2013-06-20 08:56:00,
2013-06-20 03:01:00,57.6,11.8,30.08,NW,318,1.0,2.0,16,0.00,,---,0.00,VWS V14.01,2013-06-20 09:01:00,
2013-06-20 03:06:00,57.6,11.8,30.08,WNW,293,1.0,2.0,16,0.00,,---,0.00,VWS V14.01,2013-06-20 09:06:00,
2013-06-20 03:11:00,57.7,13.2,30.08,NW,308,1.0,2.0,17,0.00,,---,0.00,VWS V14.01,2013-06-20 09:11:00,
2013-06-20 03:16:00,57.2,11.4,30.08,NNW,330,2.0,2.0,16,0.00,,---,0.00,VWS V14.01,2013-06-20 09:16:00,
2013-06-20 03:21:00,57.2,11.4,30.09,NW,326,1.0,2.0,16,0.00,,---,0.00,VWS V14.01,2013-06-20 09:21:00,
2013-06-20 03:26:00,57.2,11.4,30.08,NW,323,1.0,2.0,16,0.00,,---,0.00,VWS V14.01,2013-06-20 09:26:00,
2013-06-20 03:31:00,57.1,12.7,30.08,NNW,338,1.0,2.0,17,0.00,,---,0.00,VWS V14.01,2013-06-20 09:31:00,
2013-06-20 03:36:00,57.2,12.8,30.09,NW,315,1.0,1.0,17,0.00,,---,0.00,VWS V14.01,2013-06-20 09:36:00,
2013-06-20 03:41:00,57.0,12.6,30.09,NNW,330,1.0,2.0,17,0.00,,---,0.00,VWS V14.01,2013-06-20 09:41:00,
2013-06-20 03:46:00,56.8,12.5,30.09,NW,324,1.0,2.0,17,0.00,,---,0.00,VWS V14.01,2013-06-20 09:46:00,
2013-06-20 03:51:00,56.8,12.5,30.09,NW,307,1.0,2.0,17,0.00,,---,0.00,VWS V14.01,2013-06-20 09:51:00,
2013-06-20 03:56:00,57.0,12.6,30.09,NNW,330,1.0,2.0,17,0.00,,---,0.00,VWS V14.01,2013-06-20 09:56:00,
2013-06-20 04:01:00,57.3,11.5,30.09,NW,307,1.0,2.0,16,0.00,,---,0.00,VWS V14.01,2013-06-20 10:01:00,
2013-06-20 04:06:00,57.1,11.4,30.09,West,276,1.0,2.0,16,0.00,,---,0.00,VWS V14.01,2013-06-20 10:06:00,
2013-06-20 04:11:00,57.4,11.6,30.09,West,270,1.0,2.0,16,0.00,,---,0.00,VWS V14.01,2013-06-20 10:11:00,
2013-06-20 04:16:00,57.5,10.2,30.09,West,280,1.0,2.0,15,0.00,,---,0.00,VWS V14.01,2013-06-20 10:16:00,
2013-06-20 04:21:00,57.9,12.0,30.10,WNW,284,1.0,3.0,16,0.00,,---,0.00,VWS V14.01,2013-06-20 10:21:00,
2013-06-20 04:26:00,57.5,11.7,30.10,WSW,256,2.0,3.0,16,0.00,,---,0.00,VWS V14.01,2013-06-20 10:26:00,
2013-06-20 04:31:00,57.6,11.8,30.10,West,259,1.0,3.0,16,0.00,,---,0.00,VWS V14.01,2013-06-20 10:31:00,
2013-06-20 04:36:00,57.3,12.9,30.09,NW,326,1.0,2.0,17,0.00,,---,0.00,VWS V14.01,2013-06-20 10:36:00,
2013-06-20 04:41:00,57.0,11.3,30.10,NW,311,2.0,3.0,16,0.00,,---,0.00,VWS V14.01,2013-06-20 10:41:00,
2013-06-20 04:46:00,57.2,12.8,30.09,NNW,343,2.0,3.0,17,0.00,,---,0.00,VWS V14.01,2013-06-20 10:46:00,
2013-06-20 04:51:00,57.0,11.3,30.10,WNW,290,2.0,3.0,16,0.00,,---,0.00,VWS V14.01,2013-06-20 10:51:00,
2013-06-20 04:56:00,57.1,12.7,30.10,WNW,297,2.0,3.0,17,0.00,,---,0.00,VWS V14.01,2013-06-20 10:56:00,
2013-06-20 05:01:00,56.7,12.4,30.10,WNW,286,0.0,3.0,17,0.00,,---,0.00,VWS V14.01,2013-06-20 11:01:00,
2013-06-20 05:06:00,56.6,12.3,30.10,NW,309,1.0,2.0,17,0.00,,---,0.00,VWS V14.01,2013-06-20 11:06:00,
2013-06-20 05:11:00,56.4,12.1,30.10,West,269,1.0,3.0,17,0.00,,---,0.00,VWS V14.01,2013-06-20 11:11:00,
2013-06-20 05:16:00,56.6,12.3,30.10,WNW,291,1.0,3.0,17,0.00,,---,0.00,VWS V14.01,2013-06-20 11:16:00,
2013-06-20 05:21:00,56.6,12.3,30.10,WNW,291,1.0,3.0,17,0.00,,---,0.00,VWS V14.01,2013-06-20 11:21:00,
2013-06-20 05:26:00,56.7,12.4,30.11,WNW,290,0.0,3.0,17,0.00,,---,0.00,VWS V14.01,2013-06-20 11:26:00,
2013-06-20 05:31:00,56.7,12.4,30.11,WNW,290,0.0,3.0,17,0.00,,---,0.00,VWS V14.01,2013-06-20 11:31:00,
2013-06-20 05:36:00,56.7,12.4,30.11,WNW,290,0.0,0.0,17,0.00,,---,0.00,VWS V14.01,2013-06-20 11:36:00,
2013-06-20 05:41:00,56.7,12.4,30.11,WNW,290,0.0,0.0,17,0.00,,---,0.00,VWS V14.01,2013-06-20 11:41:00,
2013-06-20 05:46:00,56.7,12.4,30.11,WNW,290,0.0,0.0,17,0.00,,---,0.00,VWS V14.01,2013-06-20 11:46:00,
2013-06-20 05:51:00,56.7,12.4,30.12,WNW,290,0.0,0.0,17,0.00,,---,0.00,VWS V14.01,2013-06-20 11:51:00,
2013-06-20 05:56:00,56.7,12.4,30.12,WNW,290,0.0,0.0,17,0.00,,---,0.00,VWS V14.01,2013-06-20 11:56:00,
2013-06-20 06:01:00,56.7,12.4,30.12,WNW,290,0.0,0.0,17,0.00,,---,0.00,VWS V14.01,2013-06-20 12:01:00,
2013-06-20 06:06:00,56.7,12.4,30.12,WNW,290,0.0,0.0,17,0.00,,---,0.00,VWS V14.01,2013-06-20 12:06:00,
2013-06-20 06:11:00,56.7,12.4,30.12,WNW,290,0.0,0.0,17,0.00,,---,0.00,VWS V14.01,2013-06-20 12:11:00,
2013-06-20 06:16:00,56.7,12.4,30.13,WNW,290,0.0,0.0,17,0.00,,---,0.00,VWS V14.01,2013-06-20 12:16:00,
2013-06-20 06:21:00,56.7,12.4,30.13,WNW,290,0.0,0.0,17,0.00,,---,0.00,VWS V14.01,2013-06-20 12:21:00,
2013-06-20 06:26:00,56.7,12.4,30.14,WNW,290,0.0,0.0,17,0.00,,---,0.00,VWS V14.01,2013-06-20 12:26:00,
2013-06-20 06:31:00,56.7,12.4,30.13,WNW,290,0.0,0.0,17,0.00,,---,0.00,VWS V14.01,2013-06-20 12:31:00,
2013-06-20 06:36:00,56.7,12.4,30.14,WNW,290,0.0,0.0,17,0.00,,---,0.00,VWS V14.01,2013-06-20 12:36:00,
2013-06-20 06:41:00,56.7,12.4,30.14,WNW,290,0.0,0.0,17,0.00,,---,0.00,VWS V14.01,2013-06-20 12:41:00,
2013-06-20 06:46:00,56.7,12.4,30.15,WNW,290,0.0,0.0,17,0.00,,---,0.00,VWS V14.01,2013-06-20 12:46:00,
2013-06-20 06:51:00,56.7,12.4,30.14,WNW,290,0.0,0.0,17,0.00,,---,0.00,VWS V14.01,2013-06-20 12:51:00,
2013-06-20 06:56:00,56.7,12.4,30.14,WNW,290,0.0,0.0,17,0.00,,---,0.00,VWS V14.01,2013-06-20 12:56:00,
2013-06-20 07:01:00,56.7,12.4,30.14,WNW,290,0.0,0.0,17,0.00,,---,0.00,VWS V14.01,2013-06-20 13:01:00,
2013-06-20 07:06:00,61.4,13.4,30.14,WNW,288,3.0,6.0,15,0.00,,---,0.00,VWS V14.01,2013-06-20 13:06:00,
2013-06-20 07:11:00,61.4,14.8,30.15,WSW,250,3.0,6.0,16,0.00,,---,0.00,VWS V14.01,2013-06-20 13:11:00,
2013-06-20 07:16:00,61.4,14.8,30.15,SW,233,1.0,6.0,16,0.00,,---,0.00,VWS V14.01,2013-06-20 13:16:00,
2013-06-20 07:21:00,61.2,18.6,30.15,WSW,253,4.0,6.0,19,0.00,,---,0.00,VWS V14.01,2013-06-20 13:21:00,
2013-06-20 07:26:00,61.4,17.5,30.15,WSW,250,3.0,6.0,18,0.00,,---,0.00,VWS V14.01,2013-06-20 13:26:00,
2013-06-20 07:31:00,61.9,16.6,30.15,WSW,246,3.0,6.0,17,0.00,,---,0.00,VWS V14.01,2013-06-20 13:31:00,
2013-06-20 07:36:00,62.2,16.9,30.16,NNE,15,2.0,3.0,17,0.00,,---,0.00,VWS V14.01,2013-06-20 13:36:00,
2013-06-20 07:41:00,62.6,15.8,30.16,WSW,248,2.0,4.0,16,0.00,,---,0.00,VWS V14.01,2013-06-20 13:41:00,
2013-06-20 07:46:00,62.9,16.0,30.16,WSW,252,2.0,5.0,16,0.00,,---,0.00,VWS V14.01,2013-06-20 13:46:00,
2013-06-20 07:51:00,63.2,16.3,30.16,SW,235,4.0,5.0,16,0.00,,---,0.00,VWS V14.01,2013-06-20 13:51:00,
2013-06-20 07:56:00,63.6,16.6,30.16,West,270,1.0,5.0,16,0.00,,---,0.00,VWS V14.01,2013-06-20 13:56:00,
2013-06-20 08:01:00,63.8,15.3,30.16,West,264,1.0,5.0,15,0.00,,---,0.00,VWS V14.01,2013-06-20 14:01:00,
2013-06-20 08:06:00,64.2,17.1,30.16,WSW,240,2.0,2.0,16,0.00,,---,0.00,VWS V14.01,2013-06-20 14:06:00,
2013-06-20 08:11:00,64.5,17.3,30.16,WSW,257,2.0,4.0,16,0.00,,---,0.00,VWS V14.01,2013-06-20 14:11:00,
2013-06-20 08:16:00,64.9,16.2,30.16,West,260,0.0,5.0,15,0.00,,---,0.00,VWS V14.01,2013-06-20 14:16:00,
2013-06-20 08:21:00,65.1,16.3,30.16,SW,215,0.0,5.0,15,0.00,,---,0.00,VWS V14.01,2013-06-20 14:21:00,
2013-06-20 08:26:00,65.4,16.6,30.16,SSE,163,3.0,5.0,15,0.00,,---,0.00,VWS V14.01,2013-06-20 14:26:00,
2013-06-20 08:31:00,65.8,22.4,30.17,SSW,198,0.0,6.0,19,0.00,,---,0.00,VWS V14.01,2013-06-20 14:31:00,
2013-06-20 08:36:00,66.3,20.2,30.17,South,180,3.0,6.0,17,0.00,,---,0.00,VWS V14.01,2013-06-20 14:36:00,
2013-06-20 08:41:00,66.3,20.2,30.17,SE,131,5.0,7.0,17,0.00,,---,0.00,VWS V14.01,2013-06-20 14:41:00,
2013-06-20 08:46:00,66.1,20.0,30.17,SE,143,4.0,8.0,17,0.00,,---,0.00,VWS V14.01,2013-06-20 14:46:00,
2013-06-20 08:51:00,66.1,21.4,30.17,South,187,3.0,8.0,18,0.00,,---,0.00,VWS V14.01,2013-06-20 14:51:00,
2013-06-20 08:56:00,66.4,21.6,30.17,SSE,163,3.0,8.0,18,0.00,,---,0.00,VWS V14.01,2013-06-20 14:56:00,
2013-06-20 09:01:00,66.6,23.1,30.18,ESE,108,3.0,8.0,19,0.00,,---,0.00,VWS V14.01,2013-06-20 15:01:00,
2013-06-20 09:06:00,66.8,24.5,30.18,SE,135,5.0,5.0,20,0.00,,---,0.00,VWS V14.01,2013-06-20 15:06:00,
2013-06-20 09:11:00,66.7,24.4,30.18,SE,141,3.0,10.0,20,0.00,,---,0.00,VWS V14.01,2013-06-20 15:11:00,
2013-06-20 09:16:00,66.9,27.9,30.17,SE,125,6.0,10.0,23,0.00,,---,0.00,VWS V14.01,2013-06-20 15:16:00,
2013-06-20 09:21:00,67.2,23.6,30.17,SE,124,7.0,10.0,19,0.00,,---,0.00,VWS V14.01,2013-06-20 15:21:00,
2013-06-20 09:26:00,67.2,24.8,30.17,SE,143,4.0,10.0,20,0.00,,---,0.00,VWS V14.01,2013-06-20 15:26:00,
2013-06-20 09:31:00,67.5,25.0,30.18,ESE,123,2.0,10.0,20,0.00,,---,0.00,VWS V14.01,2013-06-20 15:31:00,
2013-06-20 09:36:00,67.9,24.1,30.18,ESE,105,6.0,11.0,19,0.00,,---,0.00,VWS V14.01,2013-06-20 15:36:00,
2013-06-20 09:41:00,67.6,25.1,30.18,ESE,117,3.0,11.0,20,0.00,,---,0.00,VWS V14.01,2013-06-20 15:41:00,
2013-06-20 09:46:00,67.6,26.3,30.18,East,99,4.0,11.0,21,0.00,,---,0.00,VWS V14.01,2013-06-20 15:46:00,
2013-06-20 09:51:00,67.9,25.4,30.18,ENE,68,1.0,11.0,20,0.00,,---,0.00,VWS V14.01,2013-06-20 15:51:00,
2013-06-20 09:56:00,68.0,24.2,30.18,ESE,112,2.0,11.0,19,0.00,,---,0.00,VWS V14.01,2013-06-20 15:56:00,
2013-06-20 10:01:00,67.7,26.4,30.18,SE,133,3.0,11.0,21,0.00,,---,0.00,VWS V14.01,2013-06-20 16:01:00,
2013-06-20 10:05:00,67.9,26.6,30.18,ESE,120,2.0,4.0,21,0.00,,---,0.00,VWS V14.01,2013-06-20 16:05:00,
2013-06-20 10:10:00,68.1,25.5,30.19,ESE,115,3.0,10.0,20,0.00,,---,0.00,VWS V14.01,2013-06-20 16:10:00,
2013-06-20 10:15:00,66.8,25.6,30.19,SE,129,6.0,10.0,21,0.00,,---,0.00,VWS V14.01,2013-06-20 16:15:00,
2013-06-20 10:20:00,66.6,25.5,30.19,SE,143,5.0,10.0,21,0.00,,---,0.00,VWS V14.01,2013-06-20 16:20:00,
2013-06-20 10:25:00,66.4,25.3,30.19,ESE,117,5.0,10.0,21,0.00,,---,0.00,VWS V14.01,2013-06-20 16:25:00,
2013-06-20 10:30:00,67.0,25.8,30.19,SSE,156,4.0,10.0,21,0.00,,---,0.00,VWS V14.01,2013-06-20 16:30:00,
2013-06-20 10:35:00,67.8,27.6,30.19,SE,140,2.0,4.0,22,0.00,,---,0.00,VWS V14.01,2013-06-20 16:35:00,
2013-06-20 10:40:00,67.7,28.6,30.19,SE,146,2.0,12.0,23,0.00,,---,0.00,VWS V14.01,2013-06-20 16:40:00,
2013-06-20 10:45:00,67.9,26.6,30.19,SE,131,5.0,12.0,21,0.00,,---,0.00,VWS V14.01,2013-06-20 16:45:00,
2013-06-20 10:50:00,67.7,25.2,30.18,South,186,8.0,12.0,20,0.00,,---,0.00,VWS V14.01,2013-06-20 16:50:00,
2013-06-20 10:55:00,68.2,29.0,30.18,ESE,103,5.0,12.0,23,0.00,,---,0.00,VWS V14.01,2013-06-20 16:55:00,
2013-06-20 11:00:00,69.5,26.7,30.19,SE,131,4.0,12.0,20,0.00,,---,0.00,VWS V14.01,2013-06-20 17:00:00,
2013-06-20 11:05:00,69.2,27.6,30.18,ESE,110,4.0,5.0,21,0.00,,---,0.00,VWS V14.01,2013-06-20 17:05:00,
2013-06-20 11:10:00,69.6,28.0,30.18,ESE,111,1.0,6.0,21,0.00,,---,0.00,VWS V14.01,2013-06-20 17:10:00,
2013-06-20 11:15:00,70.1,27.2,30.18,SE,134,3.0,6.0,20,0.00,,---,0.00,VWS V14.01,2013-06-20 17:15:00,
2013-06-20 11:20:00,70.7,30.0,30.18,SE,141,2.0,6.0,22,0.00,,---,0.00,VWS V14.01,2013-06-20 17:20:00,
2013-06-20 11:25:00,71.5,29.5,30.18,SE,138,4.0,6.0,21,0.00,,---,0.00,VWS V14.01,2013-06-20 17:25:00,
2013-06-20 11:30:00,71.7,29.7,30.18,ESE,123,3.0,6.0,21,0.00,,---,0.00,VWS V14.01,2013-06-20 17:30:00,
2013-06-20 11:35:00,71.6,28.4,30.18,WNW,285,0.0,1.0,20,0.00,,---,0.00,VWS V14.01,2013-06-20 17:35:00,
2013-06-20 11:40:00,72.3,30.2,30.18,ESE,120,2.0,3.0,21,0.00,,---,0.00,VWS V14.01,2013-06-20 17:40:00,
2013-06-20 11:45:00,72.9,30.7,30.18,SE,131,4.0,4.0,21,0.00,,---,0.00,VWS V14.01,2013-06-20 17:45:00,
2013-06-20 11:50:00,72.2,30.1,30.18,SE,127,1.0,7.0,21,0.00,,---,0.00,VWS V14.01,2013-06-20 17:50:00,
2013-06-20 11:55:00,72.4,29.1,30.18,ESE,120,3.0,7.0,20,0.00,,---,0.00,VWS V14.01,2013-06-20 17:55:00,
2013-06-20 12:00:00,72.2,28.9,30.18,ESE,108,1.0,7.0,20,0.00,,---,0.00,VWS V14.01,2013-06-20 18:00:00,
2013-06-20 12:05:00,72.5,29.2,30.18,East,101,3.0,3.0,20,0.00,,---,0.00,VWS V14.01,2013-06-20 18:05:00,
2013-06-20 12:10:00,72.6,29.3,30.18,SE,124,2.0,6.0,20,0.00,,---,0.00,VWS V14.01,2013-06-20 18:10:00,
2013-06-20 12:15:00,72.8,31.8,30.18,ESE,117,7.0,7.0,22,0.00,,---,0.00,VWS V14.01,2013-06-20 18:15:00,
2013-06-20 12:20:00,72.6,31.6,30.17,SE,125,1.0,7.0,22,0.00,,---,0.00,VWS V14.01,2013-06-20 18:20:00,
2013-06-20 12:25:00,73.3,33.3,30.17,ESE,117,4.0,7.0,23,0.00,,---,0.00,VWS V14.01,2013-06-20 18:25:00,
2013-06-20 12:30:00,73.8,33.7,30.17,ESE,113,1.0,7.0,23,0.00,,---,0.00,VWS V14.01,2013-06-20 18:30:00,
2013-06-20 12:35:00,73.7,33.6,30.17,ESE,114,2.0,4.0,23,0.00,,---,0.00,VWS V14.01,2013-06-20 18:35:00,
2013-06-20 12:40:00,74.0,32.8,30.17,SE,143,5.0,6.0,22,0.00,,---,0.00,VWS V14.01,2013-06-20 18:40:00,
2013-06-20 12:45:00,73.5,33.5,30.17,ESE,115,5.0,6.0,23,0.00,,---,0.00,VWS V14.01,2013-06-20 18:45:00,
2013-06-20 12:50:00,73.0,32.0,30.17,ESE,114,5.0,9.0,22,0.00,,---,0.00,VWS V14.01,2013-06-20 18:50:00,
2013-06-20 12:55:00,72.7,32.8,30.17,SSE,166,2.0,9.0,23,0.00,,---,0.00,VWS V14.01,2013-06-20 18:55:00,
2013-06-20 13:00:00,72.6,32.7,30.17,ESE,120,4.0,9.0,23,0.00,,---,0.00,VWS V14.01,2013-06-20 19:00:00,
2013-06-20 13:05:00,72.8,31.8,30.17,ESE,120,1.0,2.0,22,0.00,,---,0.00,VWS V14.01,2013-06-20 19:05:00,
2013-06-20 13:10:00,73.6,32.5,30.16,ESE,117,2.0,6.0,22,0.00,,---,0.00,VWS V14.01,2013-06-20 19:10:00,
2013-06-20 13:15:00,74.1,32.9,30.17,SE,138,3.0,6.0,22,0.00,,---,0.00,VWS V14.01,2013-06-20 19:15:00,
2013-06-20 13:20:00,74.5,33.2,30.17,SE,130,2.0,6.0,22,0.00,,---,0.00,VWS V14.01,2013-06-20 19:20:00,
2013-06-20 13:25:00,74.8,32.3,30.16,ESE,108,2.0,6.0,21,0.00,,---,0.00,VWS V14.01,2013-06-20 19:25:00,
2013-06-20 13:30:00,74.5,33.2,30.16,SE,143,3.0,7.0,22,0.00,,---,0.00,VWS V14.01,2013-06-20 19:30:00,
2013-06-20 13:35:00,73.5,32.4,30.17,ESE,117,2.0,4.0,22,0.00,,---,0.00,VWS V14.01,2013-06-20 19:35:00,
2013-06-20 13:40:00,73.1,32.0,30.17,SE,124,6.0,9.0,22,0.00,,---,0.00,VWS V14.01,2013-06-20 19:40:00,
2013-06-20 13:45:00,72.9,31.9,30.16,East,93,2.0,9.0,22,0.00,,---,0.00,VWS V14.01,2013-06-20 19:45:00,
2013-06-20 13:50:00,73.9,32.7,30.16,SE,124,0.0,9.0,22,0.00,,---,0.00,VWS V14.01,2013-06-20 19:50:00,
2013-06-20 13:55:00,74.4,32.0,30.17,SE,144,7.0,9.0,21,0.00,,---,0.00,VWS V14.01,2013-06-20 19:55:00,
2013-06-20 14:00:00,73.3,32.2,30.17,ESE,110,2.0,9.0,22,0.00,,---,0.00,VWS V14.01,2013-06-20 20:00:00,
2013-06-20 14:05:00,73.6,32.5,30.17,SE,125,3.0,3.0,22,0.00,,---,0.00,VWS V14.01,2013-06-20 20:05:00,
2013-06-20 14:10:00,74.2,33.0,30.17,SE,127,1.0,5.0,22,0.00,,---,0.00,VWS V14.01,2013-06-20 20:10:00,
2013-06-20 14:15:00,74.5,32.0,30.17,East,96,1.0,5.0,21,0.00,,---,0.00,VWS V14.01,2013-06-20 20:15:00,
2013-06-20 14:20:00,74.6,30.9,30.17,SE,133,4.0,9.0,20,0.00,,---,0.00,VWS V14.01,2013-06-20 20:20:00,
2013-06-20 14:25:00,73.6,31.3,30.17,SE,124,2.0,10.0,21,0.00,,---,0.00,VWS V14.01,2013-06-20 20:25:00,
2013-06-20 14:30:00,73.5,31.2,30.17,SE,124,0.0,10.0,21,0.00,,---,0.00,VWS V14.01,2013-06-20 20:30:00,
2013-06-20 14:35:00,72.8,30.6,30.17,SE,145,1.0,1.0,21,0.00,,---,0.00,VWS V14.01,2013-06-20 20:35:00,
2013-06-20 14:40:00,72.9,30.7,30.17,SE,131,2.0,8.0,21,0.00,,---,0.00,VWS V14.01,2013-06-20 20:40:00,
2013-06-20 14:45:00,73.4,29.9,30.17,ESE,110,4.0,9.0,20,0.00,,---,0.00,VWS V14.01,2013-06-20 20:45:00,
2013-06-20 14:50:00,72.9,31.9,30.17,ESE,120,1.0,9.0,22,0.00,,---,0.00,VWS V14.01,2013-06-20 20:50:00,
2013-06-20 14:55:00,73.4,31.1,30.17,SSE,150,1.0,9.0,21,0.00,,---,0.00,VWS V14.01,2013-06-20 20:55:00,
2013-06-20 15:00:00,73.4,31.1,30.17,ESE,106,4.0,9.0,21,0.00,,---,0.00,VWS V14.01,2013-06-20 21:00:00,
2013-06-20 15:05:00,73.2,31.0,30.17,ESE,103,3.0,3.0,21,0.00,,---,0.00,VWS V14.01,2013-06-20 21:05:00,
2013-06-20 15:10:00,72.9,29.5,30.17,SE,126,6.0,11.0,20,0.00,,---,0.00,VWS V14.01,2013-06-20 21:10:00,
2013-06-20 15:15:00,71.9,31.0,30.16,ESE,112,2.0,11.0,22,0.00,,---,0.00,VWS V14.01,2013-06-20 21:15:00,
2013-06-20 15:20:00,71.0,30.3,30.16,ESE,112,4.0,11.0,22,0.00,,---,0.00,VWS V14.01,2013-06-20 21:20:00,
2013-06-20 15:25:00,70.5,31.0,30.17,SE,139,1.0,11.0,23,0.00,,---,0.00,VWS V14.01,2013-06-20 21:25:00,
2013-06-20 15:30:00,71.7,30.9,30.17,ESE,122,2.0,11.0,22,0.00,,---,0.00,VWS V14.01,2013-06-20 21:30:00,
2013-06-20 15:35:00,73.0,30.8,30.17,East,89,1.0,2.0,21,0.00,,---,0.00,VWS V14.01,2013-06-20 21:35:00,
2013-06-20 15:40:00,73.7,30.2,30.16,ESE,113,1.0,2.0,20,0.00,,---,0.00,VWS V14.01,2013-06-20 21:40:00,
2013-06-20 15:45:00,73.8,30.3,30.16,SE,127,2.0,2.0,20,0.00,,---,0.00,VWS V14.01,2013-06-20 21:45:00,
2013-06-20 15:50:00,73.8,30.3,30.16,SE,139,1.0,2.0,20,0.00,,---,0.00,VWS V14.01,2013-06-20 21:50:00,
2013-06-20 15:55:00,73.5,28.8,30.16,SE,127,1.0,4.0,19,0.00,,---,0.00,VWS V14.01,2013-06-20 21:55:00,
2013-06-20 16:00:00,73.3,29.8,30.16,ENE,77,1.0,5.0,20,0.00,,---,0.00,VWS V14.01,2013-06-20 22:00:00,
2013-06-20 16:05:00,73.4,31.1,30.16,SE,127,0.0,1.0,21,0.00,,---,0.00,VWS V14.01,2013-06-20 22:05:00,
2013-06-20 16:10:00,73.4,29.9,30.16,South,187,0.0,1.0,20,0.00,,---,0.00,VWS V14.01,2013-06-20 22:10:00,
2013-06-20 16:15:00,73.0,29.6,30.16,ESE,120,2.0,3.0,20,0.00,,---,0.00,VWS V14.01,2013-06-20 22:15:00,
2013-06-20 16:20:00,72.4,29.1,30.16,ESE,118,1.0,3.0,20,0.00,,---,0.00,VWS V14.01,2013-06-20 22:20:00,
2013-06-20 16:25:00,71.8,28.6,30.16,South,184,1.0,3.0,20,0.00,,---,0.00,VWS V14.01,2013-06-20 22:25:00,
2013-06-20 16:30:00,71.4,29.5,30.16,SE,124,1.0,3.0,21,0.00,,---,0.00,VWS V14.01,2013-06-20 22:30:00,
2013-06-20 16:35:00,71.3,28.2,30.16,SE,134,0.0,1.0,20,0.00,,---,0.00,VWS V14.01,2013-06-20 22:35:00,
2013-06-20 16:40:00,71.6,29.6,30.16,ESE,117,2.0,2.0,21,0.00,,---,0.00,VWS V14.01,2013-06-20 22:40:00,
2013-06-20 16:45:00,72.4,29.1,30.16,SE,134,3.0,5.0,20,0.00,,---,0.00,VWS V14.01,2013-06-20 22:45:00,
2013-06-20 16:50:00,73.4,27.4,30.16,ESE,117,2.0,5.0,18,0.00,,---,0.00,VWS V14.01,2013-06-20 22:50:00,
2013-06-20 16:55:00,74.0,27.9,30.16,SE,135,0.0,5.0,18,0.00,,---,0.00,VWS V14.01,2013-06-20 22:55:00,
2013-06-20 17:00:00,74.1,27.9,30.16,SE,136,1.0,5.0,18,0.00,,---,0.00,VWS V14.01,2013-06-20 23:00:00,
2013-06-20 17:05:00,72.9,27.0,30.16,SE,131,3.0,4.0,18,0.00,,---,0.00,VWS V14.01,2013-06-20 23:05:00,
2013-06-20 17:10:00,72.7,26.8,30.15,SE,129,1.0,4.0,18,0.00,,---,0.00,VWS V14.01,2013-06-20 23:10:00,
2013-06-20 17:15:00,73.6,27.5,30.15,SE,134,1.0,4.0,18,0.00,,---,0.00,VWS V14.01,2013-06-20 23:15:00,
2013-06-20 17:20:00,74.4,28.2,30.15,ESE,117,5.0,5.0,18,0.00,,---,0.00,VWS V14.01,2013-06-20 23:20:00,
2013-06-20 17:25:00,74.1,26.5,30.15,SE,124,3.0,5.0,17,0.00,,---,0.00,VWS V14.01,2013-06-20 23:25:00,
2013-06-20 17:30:00,74.1,26.5,30.15,ESE,120,3.0,5.0,17,0.00,,---,0.00,VWS V14.01,2013-06-20 23:30:00,
2013-06-20 17:35:00,74.1,26.5,30.15,SSW,197,3.0,5.0,17,0.00,,---,0.00,VWS V14.01,2013-06-20 23:35:00,
2013-06-20 17:40:00,74.0,27.9,30.15,SSE,166,4.0,6.0,18,0.00,,---,0.00,VWS V14.01,2013-06-20 23:40:00,
2013-06-20 17:45:00,73.8,26.3,30.14,SSE,160,2.0,11.0,17,0.00,,---,0.00,VWS V14.01,2013-06-20 23:45:00,
2013-06-20 17:50:00,73.3,25.9,30.14,SE,125,2.0,11.0,17,0.00,,---,0.00,VWS V14.01,2013-06-20 23:50:00,
2013-06-20 17:55:00,72.6,26.7,30.15,SE,127,3.0,11.0,18,0.00,,---,0.00,VWS V14.01,2013-06-20 23:55:00,
2013-06-20 18:00:00,71.8,26.0,30.15,SE,132,7.0,11.0,18,0.00,,---,0.00,VWS V14.01,2013-06-21 00:00:00,
2013-06-20 18:05:00,71.3,25.6,30.15,SSW,205,2.0,2.0,18,0.00,,---,0.00,VWS V14.01,2013-06-21 00:05:00,
2013-06-20 18:10:00,71.4,25.7,30.15,South,175,1.0,4.0,18,0.00,,---,0.00,VWS V14.01,2013-06-21 00:10:00,
2013-06-20 18:15:00,71.8,26.0,30.15,SSW,204,2.0,5.0,18,0.00,,---,0.00,VWS V14.01,2013-06-21 00:15:00,
2013-06-20 18:20:00,71.8,26.0,30.15,West,268,3.0,5.0,18,0.00,,---,0.00,VWS V14.01,2013-06-21 00:20:00,
2013-06-20 18:25:00,71.7,26.0,30.15,NW,319,0.0,5.0,18,0.00,,---,0.00,VWS V14.01,2013-06-21 00:25:00,
2013-06-20 18:30:00,71.9,26.1,30.15,SW,226,2.0,5.0,18,0.00,,---,0.00,VWS V14.01,2013-06-21 00:30:00,
2013-06-20 18:35:00,71.8,27.4,30.15,ESE,122,1.0,2.0,19,0.00,,---,0.00,VWS V14.01,2013-06-21 00:35:00,
2013-06-20 18:40:00,71.4,25.7,30.15,SE,135,4.0,6.0,18,0.00,,---,0.00,VWS V14.01,2013-06-21 00:40:00,
2013-06-20 18:45:00,71.0,26.7,30.14,ESE,118,1.0,6.0,19,0.00,,---,0.00,VWS V14.01,2013-06-21 00:45:00,
2013-06-20 18:50:00,70.5,26.3,30.14,East,82,0.0,6.0,19,0.00,,---,0.00,VWS V14.01,2013-06-21 00:50:00,
2013-06-20 18:55:00,70.4,26.2,30.14,ESE,108,0.0,6.0,19,0.00,,---,0.00,VWS V14.01,2013-06-21 00:55:00,
2013-06-20 19:00:00,70.0,27.1,30.14,North,360,0.0,6.0,20,0.00,,---,0.00,VWS V14.01,2013-06-21 01:00:00,
2013-06-20 19:05:00,69.6,25.5,30.14,ESE,120,2.0,2.0,19,0.00,,---,0.00,VWS V14.01,2013-06-21 01:05:00,
2013-06-20 19:10:00,69.6,25.5,30.14,SE,127,0.0,5.0,19,0.00,,---,0.00,VWS V14.01,2013-06-21 01:10:00,
2013-06-20 19:15:00,69.6,26.8,30.14,South,173,0.0,5.0,20,0.00,,---,0.00,VWS V14.01,2013-06-21 01:15:00,
2013-06-20 19:20:00,69.6,24.2,30.15,SE,127,1.0,5.0,18,0.00,,---,0.00,VWS V14.01,2013-06-21 01:20:00,
2013-06-20 19:25:00,69.6,25.5,30.15,SE,140,2.0,5.0,19,0.00,,---,0.00,VWS V14.01,2013-06-21 01:25:00,
2013-06-20 19:30:00,69.3,26.5,30.15,SE,128,0.0,5.0,20,0.00,,---,0.00,VWS V14.01,2013-06-21 01:30:00,
2013-06-20 19:35:00,68.8,27.3,30.15,SE,129,0.0,1.0,21,0.00,,---,0.00,VWS V14.01,2013-06-21 01:35:00,
2013-06-20 19:40:00,68.1,27.9,30.15,East,95,0.0,2.0,22,0.00,,---,0.00,VWS V14.01,2013-06-21 01:40:00,
2013-06-20 19:45:00,67.5,27.4,30.15,ESE,102,0.0,2.0,22,0.00,,---,0.00,VWS V14.01,2013-06-21 01:45:00,
2013-06-20 19:50:00,67.0,29.0,30.15,East,101,0.0,2.0,24,0.00,,---,0.00,VWS V14.01,2013-06-21 01:50:00,
2013-06-20 19:55:00,66.4,28.5,30.15,East,100,0.0,2.0,24,0.00,,---,0.00,VWS V14.01,2013-06-21 01:55:00,
2013-06-20 20:00:00,65.4,28.7,30.15,NNW,333,0.0,2.0,25,0.00,,---,0.00,VWS V14.01,2013-06-21 02:00:00,
2013-06-20 20:05:00,64.7,28.1,30.16,NNW,333,0.0,0.0,25,0.00,,---,0.00,VWS V14.01,2013-06-21 02:05:00,
2013-06-20 20:10:00,64.1,27.6,30.16,NNW,333,0.0,1.0,25,0.00,,---,0.00,VWS V14.01,2013-06-21 02:10:00,
2013-06-20 20:15:00,63.7,27.2,30.16,NNW,333,1.0,1.0,25,0.00,,---,0.00,VWS V14.01,2013-06-21 02:15:00,
2013-06-20 20:20:00,63.5,28.0,30.17,NNW,333,1.0,1.0,26,0.00,,---,0.00,VWS V14.01,2013-06-21 02:20:00,
2013-06-20 20:25:00,63.3,27.9,30.17,NNW,333,1.0,1.0,26,0.00,,---,0.00,VWS V14.01,2013-06-21 02:25:00,
2013-06-20 20:30:00,63.2,27.8,30.17,NNW,333,0.0,1.0,26,0.00,,---,0.00,VWS V14.01,2013-06-21 02:30:00,
2013-06-20 20:35:00,63.0,27.6,30.17,NNW,333,1.0,1.0,26,0.00,,---,0.00,VWS V14.01,2013-06-21 02:35:00,
2013-06-20 20:40:00,62.8,27.4,30.17,NNW,340,1.0,2.0,26,0.00,,---,0.00,VWS V14.01,2013-06-21 02:40:00,
2013-06-20 20:45:00,62.2,28.7,30.17,NNW,345,2.0,3.0,28,0.00,,---,0.00,VWS V14.01,2013-06-21 02:45:00,
2013-06-20 20:50:00,61.7,28.3,30.17,NNW,338,1.0,3.0,28,0.00,,---,0.00,VWS V14.01,2013-06-21 02:50:00,
2013-06-20 20:55:00,61.7,28.3,30.17,NNW,339,1.0,3.0,28,0.00,,---,0.00,VWS V14.01,2013-06-21 02:55:00,
2013-06-20 21:00:00,61.4,28.0,30.17,NNW,338,0.0,3.0,28,0.00,,---,0.00,VWS V14.01,2013-06-21 03:00:00,
2013-06-20 21:05:00,60.8,26.6,30.17,NNW,339,0.0,0.0,27,0.00,,---,0.00,VWS V14.01,2013-06-21 03:05:00,
2013-06-20 21:10:00,60.7,27.4,30.17,NNW,340,1.0,2.0,28,0.00,,---,0.00,VWS V14.01,2013-06-21 03:10:00,
2013-06-20 21:15:00,60.5,28.1,30.17,NNW,343,2.0,2.0,29,0.00,,---,0.00,VWS V14.01,2013-06-21 03:15:00,
2013-06-20 21:20:00,60.1,27.8,30.18,NNW,343,1.0,2.0,29,0.00,,---,0.00,VWS V14.01,2013-06-21 03:20:00,
2013-06-20 21:25:00,59.9,27.6,30.18,NNW,343,2.0,2.0,29,0.00,,---,0.00,VWS V14.01,2013-06-21 03:25:00,
2013-06-20 21:30:00,59.4,28.0,30.18,NNW,343,0.0,2.0,30,0.00,,---,0.00,VWS V14.01,2013-06-21 03:30:00,
2013-06-20 21:35:00,59.2,28.6,30.18,NNW,345,0.0,0.0,31,0.00,,---,0.00,VWS V14.01,2013-06-21 03:35:00,
2013-06-20 21:40:00,58.8,27.5,30.19,NNW,345,0.0,0.0,30,0.00,,---,0.00,VWS V14.01,2013-06-21 03:40:00,
2013-06-20 21:45:00,58.6,27.3,30.19,NNW,344,0.0,0.0,30,0.00,,---,0.00,VWS V14.01,2013-06-21 03:45:00,
2013-06-20 21:50:00,58.6,26.5,30.19,NNW,345,0.0,0.0,29,0.00,,---,0.00,VWS V14.01,2013-06-21 03:50:00,
2013-06-20 21:55:00,59.0,26.8,30.19,NNW,345,0.0,0.0,29,0.00,,---,0.00,VWS V14.01,2013-06-21 03:55:00,
2013-06-20 22:00:00,58.9,26.7,30.19,NNW,343,0.0,0.0,29,0.00,,---,0.00,VWS V14.01,2013-06-21 04:00:00,
2013-06-20 22:01:00,58.9,27.5,30.19,NNW,345,2.0,2.0,30,0.00,,---,0.00,VWS V14.01,2013-06-21 04:01:00,
2013-06-20 22:02:00,58.8,27.5,30.19,NNW,344,1.0,2.0,30,0.00,,---,0.00,VWS V14.01,2013-06-21 04:02:00,
2013-06-20 22:07:00,58.6,28.1,30.19,NNW,344,0.0,1.0,31,0.00,,---,0.00,VWS V14.01,2013-06-21 04:07:00,
2013-06-20 22:12:00,58.1,27.6,30.20,NNW,344,1.0,2.0,31,0.00,,---,0.00,VWS V14.01,2013-06-21 04:12:00,
2013-06-20 22:17:00,58.1,27.6,30.20,NNW,344,1.0,2.0,31,0.00,,---,0.00,VWS V14.01,2013-06-21 04:17:00,
2013-06-20 22:22:00,58.0,28.3,30.20,NNW,340,1.0,3.0,32,0.00,,---,0.00,VWS V14.01,2013-06-21 04:22:00,
2013-06-20 22:27:00,57.3,27.7,30.20,NNW,345,1.0,3.0,32,0.00,,---,0.00,VWS V14.01,2013-06-21 04:27:00,
2013-06-20 22:32:00,56.7,27.9,30.21,NNW,344,1.0,3.0,33,0.00,,---,0.00,VWS V14.01,2013-06-21 04:32:00,
2013-06-20 22:37:00,56.6,27.9,30.21,NNW,344,0.0,1.0,33,0.00,,---,0.00,VWS V14.01,2013-06-21 04:37:00,
2013-06-20 22:42:00,57.1,27.5,30.21,NNW,344,0.0,1.0,32,0.00,,---,0.00,VWS V14.01,2013-06-21 04:42:00,
2013-06-20 22:47:00,57.5,27.9,30.21,NNW,345,0.0,1.0,32,0.00,,---,0.00,VWS V14.01,2013-06-21 04:47:00,
2013-06-20 22:52:00,57.6,28.0,30.21,NNW,344,0.0,1.0,32,0.00,,---,0.00,VWS V14.01,2013-06-21 04:52:00,
2013-06-20 22:57:00,57.4,28.5,30.21,NNW,344,0.0,1.0,33,0.00,,---,0.00,VWS V14.01,2013-06-21 04:57:00,
2013-06-20 23:02:00,57.0,29.6,30.21,NNW,344,0.0,1.0,35,0.00,,---,0.00,VWS V14.01,2013-06-21 05:02:00,
2013-06-20 23:07:00,56.7,29.4,30.21,NNW,344,0.0,0.0,35,0.00,,---,0.00,VWS V14.01,2013-06-21 05:07:00,
2013-06-20 23:12:00,56.6,29.3,30.21,NNW,344,0.0,0.0,35,0.00,,---,0.00,VWS V14.01,2013-06-21 05:12:00,
2013-06-20 23:17:00,56.3,28.3,30.21,NNW,347,2.0,3.0,34,0.00,,---,0.00,VWS V14.01,2013-06-21 05:17:00,
2013-06-20 23:22:00,56.2,28.2,30.21,NNW,343,3.0,3.0,34,0.00,,---,0.00,VWS V14.01,2013-06-21 05:22:00,
2013-06-20 23:27:00,56.1,28.1,30.21,NNW,348,1.0,3.0,34,0.00,,---,0.00,VWS V14.01,2013-06-21 05:27:00,
2013-06-20 23:32:00,56.2,27.5,30.21,NNW,343,2.0,3.0,33,0.00,,---,0.00,VWS V14.01,2013-06-21 05:32:00,
2013-06-20 23:37:00,56.4,26.2,30.21,NNW,338,2.0,3.0,31,0.00,,---,0.00,VWS V14.01,2013-06-21 05:37:00,
2013-06-20 23:42:00,56.0,25.8,30.21,NNW,343,2.0,3.0,31,0.00,,---,0.00,VWS V14.01,2013-06-21 05:42:00,
2013-06-20 23:47:00,55.9,26.5,30.20,NNW,335,2.0,3.0,32,0.00,,---,0.00,VWS V14.01,2013-06-21 05:47:00,
2013-06-20 23:52:00,55.9,27.2,30.20,NNW,340,2.0,3.0,33,0.00,,---,0.00,VWS V14.01,2013-06-21 05:52:00,
2013-06-20 23:57:00,55.9,28.0,30.20,NNW,329,1.0,3.0,34,0.00,,---,0.00,VWS V14.01,2013-06-21 05:57:00,